[[{"header":{"parameterUnit":"m.s-1","parameterCategory":1,"la1":30.2991,"la2":30.254,"lo1":-89.0895,"lo2":-89.0444,"dy":0.0017,"dx":0.0017,"nx":28,"ny":28,"refTime":"2024-03-10T09:00:00:Z","depth":0,"parameterNumber":2,"parameterNumberName":"U-component_of_WINDS"},"data":[0,0,0,0,0,0,0,0,0,0,0,0,0,0,0,0,0,0,0,0,0,0,0,0,0,0,0,0,0,0,0,0,0,0,0,0,0,0,0,0,0,0,0,0,0,0,0,0,0,0,0,0,0,0,0,0,0,0,-1.1814,-1.1815,0,-1.1885,-1.1885,-1.1886,-1.1861,-1.1859,-1.1857,-1.1856,-1.1932,-1.1936,-1.1939,0,0,0,0,0,0,0,0,0,0,0,0,0,-1.1662,-1.1665,-1.1814,-1.1815,-1.1816,-1.1884,-1.1885,-1.1886,-1.1861,-1.1859,-1.1857,-1.1855,-1.1931,-1.1935,-1.1939,0,0,0,0,0,0,0,0,0,0,0,0,0,-1.173,-1.1666,-1.1814,-1.1811,-1.1812,-1.1884,-1.1885,-1.1887,-1.1861,-1.1859,-1.1857,-1.1854,-1.193,-1.1935,-1.194,-1.202,0,0,-1.1956,-1.1958,0,0,0,0,0,0,0,0,-1.1726,-1.1735,-1.1811,-1.1812,-1.1812,-1.1861,-1.186,-1.1932,-1.1862,-1.1843,-1.1856,-1.1853,-1.1911,-1.1917,-1.1936,-1.2024,-1.2027,-1.1956,-1.196,-1.1962,-1.1963,0,0,0,0,0,0,0,-1.1721,-1.1732,-1.1842,-1.1812,-1.1813,-1.1808,-1.1815,-1.1873,-1.1889,-1.1844,-1.1842,-1.1851,-1.1911,-1.1931,-1.1938,-1.2028,-1.1956,-1.1961,-1.1964,-1.1966,-1.2187,-1.2189,0,0,0,0,0,0,-1.1716,-1.1729,-1.184,-1.1844,-1.1762,-1.1813,-1.1821,-1.1848,-1.1889,-1.1892,-1.1853,-1.185,-1.1923,-1.1931,-1.194,-1.2037,-1.1962,-1.1967,-1.197,-1.2184,-1.2187,-1.219,0,0,0,0,0,0,-1.1713,-1.1726,-1.1837,-1.1786,-1.18,-1.1818,-1.1849,-1.1851,-1.1871,-1.1895,-1.1898,-1.187,-1.1922,-1.1933,-1.2,-1.204,-1.1969,-1.1974,-1.2181,-1.2185,-1.2189,-1.2232,0,0,0,0,0,0,-1.1708,-1.1725,-1.1755,-1.1787,-1.1802,-1.1895,-1.1851,-1.1854,-1.188,-1.1876,-1.1912,-1.1916,-1.1921,-1.1993,-1.2006,-1.2046,-1.1978,-1.2177,-1.2183,-1.2187,-1.2227,-1.2237,-1.2246,0,0,0,0,0,-1.1703,-1.1765,-1.1756,-1.177,-1.184,-1.1897,-1.1906,-1.1909,-1.1883,-1.1914,-1.1929,-1.1915,-1.2033,-1.2,-1.2014,-1.2056,-1.2175,-1.2181,-1.2187,-1.2223,-1.2235,-1.2246,0,0,0,0,0,0,-1.1738,-1.1769,-1.176,-1.1834,-1.1863,-1.1893,-1.1932,-1.1922,-1.196,-1.1955,-1.1958,-1.1966,-1.2036,-1.2053,-1.2015,-1.2137,-1.21,-1.211,-1.2123,-1.2135,-1.2144,-1.2138,-1.1982,0,0,0,0,0,-1.1754,-1.1797,-1.1822,-1.1885,-1.19,-1.1913,-1.1938,-1.1938,-1.1969,-1.1981,-1.2002,-1.2034,-1.2078,-1.2107,-1.2149,-1.223,-1.2238,-1.2266,-1.2275,-1.2282,-1.2291,-1.2335,-1.2348,-1.221,-1.221,-1.221,0,0,-1.1789,-1.1811,-1.1838,-1.1893,-1.1915,-1.1961,-1.1924,-1.1974,-1.2008,-1.1989,-1.2054,-1.2071,-1.2107,-1.2181,-1.2215,-1.2197,-1.2331,-1.229,-1.2296,-1.23,-1.2343,-1.2356,-1.2367,-1.2214,-1.2213,-1.2213,0,0,-1.1874,-1.1895,-1.1949,-1.1973,-1.2007,-1.2015,-1.2029,-1.206,-1.207,-1.2135,-1.2122,-1.2164,-1.224,-1.2266,-1.2289,-1.2385,-1.2374,-1.2399,-1.2447,-1.249,-1.2501,-1.2511,-1.2546,-1.2558,-1.2407,-1.2407,-1.2407,0,-1.1913,-1.1979,-1.1979,-1.203,-1.2055,-1.2039,-1.2095,-1.2118,-1.2165,-1.2184,-1.2163,-1.2258,-1.2281,-1.2362,-1.2385,-1.2404,-1.2421,-1.2395,-1.2499,-1.2509,-1.2518,-1.2551,-1.2564,-1.241,-1.2409,-1.2409,-1.2409,0,-1.2025,-1.2072,-1.2112,-1.2156,-1.2186,-1.2239,-1.2249,-1.2279,-1.2276,-1.2287,-1.2354,-1.2381,-1.2429,-1.2448,-1.2446,-1.2529,-1.2517,-1.2498,-1.2461,-1.2534,-1.2565,-1.2578,-1.2414,-1.2413,-1.2412,-1.2411,0,0,-1.2135,-1.2178,-1.2193,-1.2213,-1.225,-1.2287,-1.234,-1.2385,-1.2411,-1.2445,-1.249,-1.2555,-1.2537,-1.2564,-1.2565,-1.2603,-1.2678,-1.2579,-1.258,-1.2597,-1.2772,-1.2786,-1.2801,-1.2671,-1.2673,-1.2675,-1.2769,0,-1.2224,-1.2315,-1.2317,-1.2402,-1.2446,-1.2431,-1.2478,-1.2506,-1.2518,-1.2558,-1.2572,-1.2618,-1.2591,-1.2607,-1.2644,-1.2661,-1.2713,-1.2654,-1.2714,-1.2716,-1.2706,-1.2817,-1.2832,-1.292,-1.2781,-1.2783,-1.2785,0,-1.234,-1.2375,-1.2464,-1.2494,-1.2513,-1.2554,-1.2596,-1.2634,-1.2666,-1.2673,-1.2702,-1.2698,-1.2753,-1.2715,-1.2792,-1.2752,-1.2777,-1.2789,-1.2793,-1.2799,-1.2755,-1.2827,-1.2948,-1.2961,-1.2804,-1.2803,-1.2801,0,-1.2411,-1.2481,-1.2544,-1.2561,-1.2598,-1.2628,-1.2645,-1.2675,-1.2702,-1.2739,-1.2757,-1.2801,-1.2825,-1.286,-1.2868,-1.2839,-1.2946,-1.2908,-1.2954,-1.2954,-1.2977,-1.2976,-1.3104,-1.2992,-1.2992,-1.2992,-1.2992,0,-1.2511,-1.2566,-1.2576,-1.2615,-1.2676,-1.2678,-1.274,-1.2755,-1.2782,-1.2824,-1.2815,-1.2855,-1.2863,-1.2905,-1.2912,-1.2975,-1.2986,-1.2994,-1.2995,-1.2995,-1.2994,-1.3011,-1.3006,-1.2995,-1.2995,-1.2994,-1.2993,0,-1.2601,-1.2611,-1.2677,-1.2707,-1.2716,-1.276,-1.2786,-1.2823,-1.2834,-1.2888,-1.29,-1.2918,-1.2967,-1.2978,-1.3037,-1.3042,-1.3118,-1.3113,-1.3106,-1.3106,-1.3151,-1.3147,-1.3296,-1.3316,-1.3191,-1.3192,-1.3193,0,-1.2664,-1.2706,-1.274,-1.2766,-1.2785,-1.2828,-1.2855,-1.286,-1.2889,-1.2929,-1.2962,-1.301,-1.3048,-1.3128,-1.3147,-1.3192,-1.3189,-1.3238,-1.3196,-1.3194,-1.319,-1.3188,-1.3193,-1.3246,-1.3248,-1.3249,-1.3249,0,-1.2775,-1.2778,-1.2816,-1.2858,-1.289,-1.2923,-1.2954,-1.2977,-1.2986,-1.3019,-1.3069,-1.3098,-1.3158,-1.3206,-1.3252,-1.3271,-1.3263,-1.3262,-1.3276,-1.3276,-1.3271,-1.3275,-1.3129,-1.3259,-1.3258,-1.3258,-1.3257,-1.3257,-1.2854,-1.2891,-1.292,-1.2964,-1.2988,-1.3017,-1.3054,-1.3069,-1.311,-1.3158,-1.3158,-1.3212,-1.3245,-1.3304,-1.3326,-1.337,-1.3355,-1.3374,-1.3379,-1.3384,-1.3388,-1.3263,-1.3378,-1.3378,-1.3378,-1.3378,-1.3377,0,-1.2965,-1.2983,-1.3024,-1.3067,-1.3102,-1.3089,-1.3123,-1.3154,-1.3201,-1.3231,-1.3269,-1.3326,-1.3373,-1.3396,-1.3442,-1.3473,-1.347,-1.3485,-1.3483,-1.3488,-1.3398,-1.3382,-1.3486,-1.3486,-1.3486,-1.3486,-1.3486,-1.3486,-1.3027,-1.3088,-1.3094,-1.3168,-1.3186,-1.3238,-1.3258,-1.3286,-1.331,-1.3374,-1.3412,-1.3426,-1.3454,-1.3502,-1.3545,-1.355,-1.3568,-1.3585,-1.3589,-1.3505,-1.3494,-1.3484,-1.3469,-1.3589,-1.3589,-1.3675,-1.3676,-1.3677]},{"header":{"parameterUnit":"m.s-1","parameterCategory":1,"la1":30.2991,"la2":30.254,"lo1":-89.0895,"lo2":-89.0444,"dy":0.0017,"dx":0.0017,"nx":28,"ny":28,"refTime":"2024-03-10T09:00:00:Z","depth":0,"parameterNumber":3,"parameterNumberName":"V-component_of_WINDS"},"data":[0,0,0,0,0,0,0,0,0,0,0,0,0,0,0,0,0,0,0,0,0,0,0,0,0,0,0,0,0,0,0,0,0,0,0,0,0,0,0,0,0,0,0,0,0,0,0,0,0,0,0,0,0,0,0,0,0,0,2.6373,2.6373,0,2.64,2.64,2.64,2.6356,2.6355,2.6353,2.6352,2.6377,2.6379,2.6381,0,0,0,0,0,0,0,0,0,0,0,0,0,2.6282,2.6284,2.6373,2.6373,2.6374,2.64,2.64,2.64,2.6357,2.6355,2.6353,2.6351,2.6376,2.6379,2.6381,0,0,0,0,0,0,0,0,0,0,0,0,0,2.6316,2.6284,2.6373,2.6355,2.6354,2.64,2.64,2.64,2.6357,2.6355,2.6353,2.635,2.6375,2.6378,2.6381,2.6445,0,0,2.6391,2.6392,0,0,0,0,0,0,0,0,2.6314,2.632,2.6357,2.6356,2.6355,2.6372,2.6377,2.6415,2.6358,2.6356,2.6352,2.6349,2.6377,2.638,2.639,2.6446,2.6447,2.6391,2.6393,2.6394,2.6395,0,0,0,0,0,0,0,2.6312,2.6318,2.6383,2.6358,2.6357,2.6345,2.6347,2.6384,2.6379,2.6356,2.6353,2.6356,2.6376,2.6387,2.639,2.6448,2.6391,2.6394,2.6396,2.6397,2.6556,2.6559,0,0,0,0,0,0,2.6312,2.6317,2.6383,2.6384,2.6329,2.6348,2.6351,2.6369,2.6378,2.6377,2.6358,2.6354,2.6383,2.6386,2.6391,2.6464,2.6394,2.6397,2.6399,2.6554,2.6557,2.6559,0,0,0,0,0,0,2.631,2.6319,2.6382,2.635,2.6357,2.6352,2.6373,2.6371,2.6382,2.638,2.6379,2.6371,2.6381,2.6386,2.6432,2.6465,2.6399,2.6401,2.6551,2.6555,2.6558,2.6613,0,0,0,0,0,0,2.6308,2.6318,2.6343,2.6351,2.6359,2.6423,2.6375,2.6373,2.6387,2.6382,2.6391,2.639,2.638,2.6427,2.6435,2.6468,2.6404,2.6548,2.6553,2.6557,2.6608,2.6618,2.6627,0,0,0,0,0,2.6305,2.6357,2.6345,2.6353,2.639,2.6425,2.643,2.6417,2.639,2.6414,2.6413,2.639,2.646,2.6432,2.644,2.6475,2.6546,2.6551,2.6557,2.6604,2.6616,2.6627,0,0,0,0,0,0,2.6353,2.6358,2.6344,2.6401,2.6413,2.6418,2.6448,2.643,2.645,2.6444,2.6427,2.6429,2.6478,2.6481,2.645,2.6536,2.6498,2.6506,2.6532,2.6543,2.6552,2.655,2.6406,0,0,0,0,0,2.6371,2.64,2.6402,2.6452,2.6459,2.6453,2.6468,2.6457,2.6468,2.6473,2.6475,2.6487,2.6511,2.6528,2.655,2.6609,2.661,2.6637,2.6646,2.6653,2.6659,2.6689,2.67,2.6577,2.6577,2.6577,0,0,2.6406,2.6413,2.6432,2.6462,2.647,2.6499,2.6457,2.6491,2.6512,2.6478,2.6521,2.6523,2.6535,2.6587,2.661,2.6591,2.6694,2.666,2.6666,2.6668,2.6696,2.6707,2.6718,2.6581,2.658,2.6579,0,0,2.6486,2.6495,2.6537,2.6546,2.6559,2.6554,2.6565,2.6572,2.6572,2.6615,2.659,2.6615,2.6658,2.6667,2.6677,2.676,2.6739,2.6768,2.6815,2.6844,2.6854,2.6862,2.689,2.6901,2.6774,2.6775,2.6775,0,2.6529,2.6573,2.656,2.6595,2.6608,2.658,2.6621,2.663,2.665,2.6659,2.6638,2.669,2.6696,2.6749,2.677,2.678,2.6789,2.6766,2.6854,2.6862,2.687,2.6896,2.6907,2.6778,2.6778,2.6777,2.6777,0,2.6624,2.6655,2.6687,2.6707,2.6724,2.6762,2.6753,2.6772,2.6759,2.6757,2.68,2.6806,2.6829,2.6841,2.683,2.6892,2.688,2.6857,2.6818,2.6885,2.691,2.692,2.6783,2.6781,2.678,2.678,0,0,2.6734,2.6747,2.6758,2.6766,2.6779,2.6802,2.6838,2.6861,2.6876,2.6891,2.692,2.6957,2.6935,2.6947,2.6936,2.6962,2.7025,2.6935,2.6935,2.695,2.7093,2.7109,2.7121,2.7012,2.7014,2.7016,2.7091,0,2.6812,2.6875,2.6864,2.6925,2.6952,2.6926,2.6957,2.6967,2.6966,2.6988,2.6986,2.7012,2.6983,2.6989,2.7014,2.7012,2.7053,2.7007,2.7037,2.7038,2.7033,2.7134,2.7151,2.7222,2.7101,2.7102,2.7104,0,2.6912,2.693,2.6994,2.7001,2.7012,2.704,2.7059,2.7082,2.7093,2.709,2.7103,2.7087,2.7122,2.7084,2.7131,2.71,2.7112,2.7113,2.7115,2.7116,2.7074,2.7135,2.7244,2.7254,2.7119,2.7118,2.7116,0,2.6984,2.7025,2.7067,2.7075,2.7085,2.7105,2.711,2.7119,2.7133,2.715,2.7159,2.7179,2.719,2.7206,2.7196,2.717,2.7244,2.7206,2.7241,2.7241,2.7256,2.7255,2.7367,2.7267,2.7267,2.7267,2.7267,0,2.7071,2.711,2.7099,2.7126,2.7168,2.7155,2.7198,2.7199,2.7207,2.7232,2.7211,2.7235,2.7221,2.7244,2.7236,2.7275,2.728,2.7278,2.7275,2.7279,2.7279,2.7285,2.7279,2.727,2.7269,2.7268,2.7268,0,2.7158,2.7152,2.7197,2.7203,2.7205,2.7236,2.724,2.7264,2.7261,2.7293,2.73,2.7295,2.7321,2.7312,2.734,2.7334,2.7383,2.7375,2.738,2.7377,2.7412,2.7408,2.753,2.7544,2.7437,2.7438,2.7439,0,2.7213,2.7243,2.7251,2.7267,2.7274,2.7299,2.7313,2.7301,2.7317,2.7331,2.7353,2.7377,2.7394,2.7436,2.7434,2.7455,2.7446,2.7487,2.7448,2.7451,2.7444,2.7442,2.7444,2.7494,2.7495,2.7496,2.7497,0,2.7311,2.7307,2.7328,2.7349,2.7367,2.7382,2.7396,2.7409,2.7398,2.7416,2.7442,2.7456,2.7484,2.7507,2.7526,2.7529,2.7511,2.751,2.7518,2.7521,2.7522,2.752,2.7398,2.7506,2.7505,2.7505,2.7504,2.7504,2.7382,2.7407,2.7417,2.7441,2.745,2.7463,2.7485,2.7485,2.7507,2.7529,2.752,2.755,2.7559,2.7582,2.7588,2.761,2.7594,2.7607,2.761,2.7613,2.7617,2.752,2.7614,2.7613,2.7613,2.7613,2.7613,0,2.7477,2.7483,2.7505,2.7525,2.7544,2.7526,2.754,2.7556,2.7583,2.7593,2.7611,2.764,2.7663,2.7663,2.7683,2.7701,2.7693,2.7706,2.7704,2.7705,2.7631,2.7621,2.7713,2.7713,2.7713,2.7712,2.7712,2.7712,2.7529,2.7569,2.7566,2.761,2.7614,2.7643,2.7652,2.7664,2.7672,2.7705,2.7724,2.7724,2.773,2.7751,2.777,2.7769,2.7777,2.7794,2.779,2.772,2.771,2.7701,2.7691,2.7796,2.7796,2.7861,2.7862,2.7862]}]]